Tracking 17884 objects as of 6-December-2016
HD Live streaming from Space Station
objects crossing your sky now

COSMOS 2278

Track COSMOS 2278 now!
10-day predictions
COSMOS 2278 is classified as:


NORAD ID: 23087
Int'l Code: 1994-023A
Perigee: 848.2 km
Apogee: 859.3 km
Inclination: 71.1 °
Period: 101.9 minutes
Semi major axis: 7224 km
RCS: 13.2242 m2 (large)
Launch date: April 23, 1994
Source: Commonwealth of Independent States (former USSR) (CIS)
Launch site: TYURATAM MISSILE AND SPACE COMPLEX (TTMTR)
Your satellite tracking list
Your tracking list is empty





NASA's NSSDC Master Catalog

Two Line Element Set (TLE):
1 23087U 94023A   16340.61564745 -.00000247  00000-0 -10563-3 0  9993
2 23087  71.0552  43.5475 0007724 168.9070 191.2225 14.13735345167137
Source of the keplerian elements: AFSPC